Miscellaneous Local Product
Issued by NWS Hastings, NE

Home | Current Version | Previous Version | Graphics & Text | Print | Product List | Glossary On
Versions: 1 2 3 4 5 6 7 8 9 10 11 12 13 14 15 16 17 18 19 20 21 22 23 24 25 26 27 28 29 30 31 32 33 34 35 36 37 38 39 40 41 42 43 44 45 46 47 48 49 50
000
AXUS43 KGID 010502
MISGRI

GID CWA HOURLY WEATHER ROUNDUP
NATIONAL WEATHER SERVICE HASTINGS NE
1200 AM CDT WED JUL 01 2015

NOTE: "FAIR" INDICATES FEW OR NO CLOUDS BELOW 12,000 FEET WITH NO
SIGNIFICANT WEATHER AND/OR OBSTRUCTIONS TO VISIBILITY.

...SOUTH CENTRAL NEBRASKA...

CITY           SKY/WX    TMP DP  RH WIND       PRES   REMARKS
GRAND ISLAND   NOT AVBL
HASTINGS       NOT AVBL
KEARNEY        NOT AVBL
ORD            NOT AVBL
YORK           CLOUDY    72  64  78 E15       29.86F
AURORA         CLOUDY    73  65  76 E13       29.86S
LEXINGTON      CLOUDY    76  67  73 E8        29.84S
HOLDREGE       MOCLDY    76  64  66 E7        29.83S
HEBRON         CLOUDY    77  67  71 E7        29.82F

...NEBRASKA PANHANDLE...

CITY           SKY/WX    TMP DP  RH WIND       PRES   REMARKS
CHADRON        NOT AVBL
ALLIANCE       NOT AVBL
SCOTTSBLUFF    NOT AVBL
SIDNEY         NOT AVBL

...WESTERN AND NORTH CENTRAL NEBRASKA...

CITY           SKY/WX    TMP DP  RH WIND       PRES   REMARKS
VALENTINE      NOT AVBL
AINSWORTH      MOCLDY    67  61  81 SE9       29.90S
ONEILL         MOCLDY    70  64  81 SE13G18   29.89F
BROKEN BOW     NOT AVBL
NORTH PLATTE   NOT AVBL
MCCOOK         NOT AVBL

...EASTERN NEBRASKA...

CITY           SKY/WX    TMP DP  RH WIND       PRES   REMARKS
NORFOLK        LGT RAIN  68  65  90 SE14      29.89F
ALBION         CLOUDY    67  62  83 SE8       29.90F
OMAHA EPPLEY   TSTM      71  68  90 S8        29.91F
OFFUTT AFB     LGT RAIN  70  66  89 W2        29.94R FOG
MILLARD        CLOUDY    70  67  88 E8        29.91R
LINCOLN        NOT AVBL
NEBRASKA CITY  CLOUDY    72  62  71 E8        29.90R
BEATRICE       MOCLDY    75  65  71 E10G16    29.84F
FALLS CITY     NOT AVBL

...NORTHERN KANSAS...

CITY           SKY/WX    TMP DP  RH WIND       PRES   REMARKS
GOODLAND       NOT AVBL
HILL CITY      NOT AVBL
NORTON         CLEAR     82  45  26 SW12      29.81F
PHILLIPSBURG   CLEAR     84  52  32 SW6       29.79F
SMITH CENTER   CLEAR     75  61  60 E5        29.80S
RUSSELL        NOT AVBL
CONCORDIA      NOT AVBL



USA.gov is the U.S. government's official web portal to all federal, state and local government web resources and services.